Find Starlink 2195

NORAD ID: 47772 Int'l Des: 2021-017 Owner: SPXS Country: US Constellation: starlink operational
LEOCIRCULAR

Live Position

Loading 3D Globe...

About Starlink 2195

Description loading...

Upcoming Passes

Passes for default location (London). Set your location on the main map for personalized predictions.

Altitude History

Loading altitude history...

Two-Line Element Set

1 47772U 21017BC 26104.89528954 .00159969 00000-0 51488-2 0 9998
2 47772 53.1604 49.0960 0001609 104.0045 256.1135 15.31122677283209
Epoch: Apr 14, 2026 • Age: 7 hours

Current Status

Altitude 477.5 km
Velocity 7.63 km/s
Sub-Earth Point 52.67°N, 115.85°W
Launch Date Mar 4, 2021
Age 5.1 years
Type internet

Technical Details

Classification Payload
Mass 260.00 kg
Dry Mass 248.00 kg
Total Mass 260.00 kg
Length 0.20 m
Diameter 2.80 m
Span 9.00 m
Shape Box + pan
Manufacturer SPXS
Bus Type Starlink
Phase Status In Orbit
Owner/State SPXS/US

Most Searched